Appleton, MN

5:21 PM CDT on May 24, 2018 (GMT -0500)
Appleton Municipal

Weather History for KAQP - May, 2012

Change the Weather History Date:

Tuesday, May 8, 2012

  Actual Average Record
Temperature  
Mean Temperature 52 °F -  
Max Temperature 57 °F 63 °F 78 °F (2018)
Min Temperature 46 °F 40 °F 37 °F (2008)
Degree Days  
Heating Degree Days 14    
Growing Degree Days 2 (Base 50)    
Moisture  
Dew Point 45 °F    
Average Humidity 78    
Maximum Humidity 93    
Minimum Humidity 63    
Precipitation  
Precipitation 0.10 in - - ()
Sea Level Pressure  
Sea Level Pressure 29.95 in    
Wind  
Wind Speed 12 mph (NW)    
Max Wind Speed 24 mph    
Max Gust Speed 32 mph    
Visibility 10 miles    
Events Rain    
Averages and records for this station are not official NWS values.
T = Trace of Precipitation, MM = Missing Value Source: NWS Daily Summary

Daily Weather History Graph

Daily Weather History Graph

Search for Another Location

Airport or City:

Astronomy

May. 08, 2012 Rise Set
Actual Time 6:02 AM CDT 8:39 PM CDT
Civil Twilight 5:28 AM CDT 9:13 PM CDT
Nautical Twilight 4:46 AM CDT 9:55 PM CDT
Astronomical Twilight 3:58 AM CDT 10:44 PM CDT
Moon 11:54 PM CDT (5/8) 8:06 AM CDT (5/8)
Length of Visible Light 15h 44m
Length of Day
14h 37m
Waning Gibbous, 90% of the Moon is Illuminated
May 8
Waning Gibbous
May 12
Last Quarter
May 20
New
May 28
First Quarter
Jun 4
Full

Hourly Weather History & Observations

Time (CDT) Temp. Windchill Dew Point Humidity Pressure Visibility Wind Dir Wind Speed Gust Speed Precip Events Conditions
12:15 AM 48.2 °F - 42.8 °F 82% 29.92 in 10.0 mi West 9.2 mph - N/A   Clear
12:34 AM 48.2 °F - 42.8 °F 82% 29.92 in 10.0 mi West 9.2 mph - N/A   Clear
12:54 AM 48.2 °F - 42.8 °F 82% 29.92 in 10.0 mi West 9.2 mph - N/A   Clear
1:14 AM 48.2 °F - 42.8 °F 82% 29.92 in 10.0 mi West 8.1 mph - N/A   Scattered Clouds
1:34 AM 48.2 °F - 42.8 °F 82% 29.92 in 10.0 mi West 8.1 mph - N/A   Overcast
1:54 AM 48.2 °F - 42.8 °F 82% 29.92 in 10.0 mi West 8.1 mph - N/A   Overcast
2:14 AM 48.2 °F - 42.8 °F 82% 29.91 in 10.0 mi West 9.2 mph - N/A   Mostly Cloudy
2:35 AM 48.2 °F - 42.8 °F 82% 29.91 in 10.0 mi West 9.2 mph - N/A   Overcast
2:55 AM 48.2 °F - 44.6 °F 87% 29.91 in 10.0 mi West 6.9 mph - N/A   Overcast
3:14 AM 48.2 °F - 42.8 °F 82% 29.91 in 10.0 mi West 9.2 mph - N/A   Overcast
3:34 AM 48.2 °F - 42.8 °F 82% 29.90 in 10.0 mi West 8.1 mph - N/A   Scattered Clouds
3:54 AM 46.4 °F 42.4 °F 42.8 °F 87% 29.90 in 10.0 mi West 8.1 mph - N/A   Clear
4:14 AM 46.4 °F 42.9 °F 42.8 °F 87% 29.90 in 10.0 mi West 6.9 mph - N/A   Mostly Cloudy
4:55 AM 48.2 °F - 42.8 °F 82% 29.90 in 10.0 mi West 8.1 mph - N/A   Overcast
5:15 AM 48.2 °F - 44.6 °F 87% 29.89 in 10.0 mi West 8.1 mph - N/A   Overcast
5:35 AM 48.2 °F - 44.6 °F 87% 29.90 in 10.0 mi West 11.5 mph - N/A   Overcast
5:55 AM 48.2 °F - 44.6 °F 87% 29.90 in 10.0 mi West 12.7 mph - N/A   Overcast
6:15 AM 48.2 °F - 44.6 °F 87% 29.90 in 10.0 mi West 10.4 mph - N/A Rain Light Rain
6:34 AM 48.2 °F - 44.6 °F 87% 29.91 in 10.0 mi WNW 11.5 mph - N/A   Scattered Clouds
6:55 AM 48.2 °F - 46.4 °F 93% 29.91 in 10.0 mi WNW 9.2 mph - N/A   Mostly Cloudy
7:14 AM 50.0 °F - 46.4 °F 87% 29.91 in 10.0 mi WNW 9.2 mph - N/A   Mostly Cloudy
7:35 AM 50.0 °F - 44.6 °F 82% 29.91 in 10.0 mi WNW 10.4 mph - N/A   Overcast
7:55 AM 51.8 °F - 44.6 °F 76% 29.92 in 10.0 mi NW 10.4 mph - N/A   Overcast
8:15 AM 51.8 °F - 44.6 °F 76% 29.92 in 10.0 mi NW 15.0 mph 18.4 mph N/A Rain Light Rain
8:34 AM 51.8 °F - 44.6 °F 76% 29.93 in 10.0 mi NW 17.3 mph - N/A   Overcast
8:56 AM 53.6 °F - 44.6 °F 72% 29.93 in 10.0 mi NNW 17.3 mph 21.9 mph N/A   Overcast
9:15 AM 51.8 °F - 42.8 °F 71% 29.93 in 10.0 mi NNW 13.8 mph - N/A   Overcast
9:34 AM 51.8 °F - 44.6 °F 76% 29.93 in 10.0 mi NNW 15.0 mph - N/A   Overcast
9:55 AM 51.8 °F - 42.8 °F 71% 29.94 in 10.0 mi NNW 18.4 mph 21.9 mph N/A   Overcast
10:14 AM 51.8 °F - 44.6 °F 76% 29.94 in 10.0 mi NNW 16.1 mph 19.6 mph N/A   Overcast
10:35 AM 51.8 °F - 42.8 °F 71% 29.94 in 10.0 mi NW 15.0 mph 21.9 mph N/A   Overcast
10:55 AM 51.8 °F - 44.6 °F 76% 29.94 in 10.0 mi NW 15.0 mph 19.6 mph N/A   Overcast
11:15 AM 53.6 °F - 44.6 °F 72% 29.94 in 10.0 mi NW 15.0 mph - N/A   Overcast
11:55 AM 55.4 °F - 42.8 °F 63% 29.95 in 10.0 mi NW 19.6 mph 24.2 mph N/A   Mostly Cloudy
12:14 PM 55.4 °F - 42.8 °F 63% 29.95 in 10.0 mi NW 19.6 mph 26.5 mph N/A   Mostly Cloudy
12:35 PM 55.4 °F - 42.8 °F 63% 29.95 in 10.0 mi NNW 21.9 mph 28.8 mph N/A   Mostly Cloudy
12:54 PM 55.4 °F - 44.6 °F 67% 29.95 in 10.0 mi NW 19.6 mph 27.6 mph N/A   Mostly Cloudy
1:14 PM 50.0 °F - 46.4 °F 87% 29.95 in 4.0 mi NW 18.4 mph 32.2 mph N/A Rain Rain
1:35 PM 53.6 °F - 46.4 °F 77% 29.95 in 10.0 mi NW 18.4 mph 23.0 mph N/A   Mostly Cloudy
1:54 PM 55.4 °F - 44.6 °F 67% 29.94 in 10.0 mi NW 23.0 mph 28.8 mph N/A   Mostly Cloudy
2:17 PM 57.2 °F - 46.4 °F 67% 29.94 in 10.0 mi NNW 19.6 mph 26.5 mph N/A   Mostly Cloudy
2:38 PM 55.4 °F - 46.4 °F 72% 29.95 in 10.0 mi NW 18.4 mph 25.3 mph N/A Rain Rain
2:55 PM 57.2 °F - 44.6 °F 63% 29.94 in 10.0 mi NW 24.2 mph - N/A   Mostly Cloudy
3:15 PM 50.0 °F - 46.4 °F 87% 29.95 in 2.5 mi North 16.1 mph - 0.06 in Rain Heavy Rain
3:35 PM 53.6 °F - 48.2 °F 82% 29.95 in 10.0 mi North 12.7 mph - 0.08 in Rain Light Rain
3:54 PM 51.8 °F - 46.4 °F 82% 29.95 in 7.0 mi North 21.9 mph 28.8 mph 0.09 in Rain Heavy Rain
4:15 PM 53.6 °F - 48.2 °F 82% 29.95 in 10.0 mi NNW 23.0 mph 27.6 mph 0.01 in Rain Light Rain
4:34 PM 55.4 °F - 48.2 °F 77% 29.95 in 10.0 mi NNW 18.4 mph 27.6 mph 0.01 in   Scattered Clouds
4:55 PM 57.2 °F - 46.4 °F 67% 29.95 in 10.0 mi NNW 23.0 mph 29.9 mph 0.01 in   Scattered Clouds
5:15 PM 55.4 °F - 44.6 °F 67% 29.96 in 10.0 mi NNW 18.4 mph 29.9 mph N/A   Mostly Cloudy
5:35 PM 55.4 °F - 46.4 °F 72% 29.96 in 10.0 mi NW 19.6 mph 25.3 mph N/A   Mostly Cloudy
5:54 PM 55.4 °F - 46.4 °F 72% 29.96 in 10.0 mi North 17.3 mph 26.5 mph N/A   Mostly Cloudy
6:35 PM 51.8 °F - 48.2 °F 88% 29.98 in 10.0 mi NNW 18.4 mph 27.6 mph N/A Rain Light Rain
6:54 PM 53.6 °F - 46.4 °F 77% 29.98 in 10.0 mi NNW 16.1 mph 21.9 mph N/A   Mostly Cloudy
7:15 PM 55.4 °F - 46.4 °F 72% 29.98 in 10.0 mi NNW 18.4 mph 21.9 mph N/A   Mostly Cloudy
7:35 PM 53.6 °F - 46.4 °F 77% 29.99 in 10.0 mi NNW 18.4 mph 26.5 mph N/A   Overcast
7:54 PM 53.6 °F - 46.4 °F 77% 29.99 in 10.0 mi NNW 18.4 mph 24.2 mph N/A   Overcast
8:14 PM 53.6 °F - 46.4 °F 77% 29.99 in 10.0 mi NNW 17.3 mph 24.2 mph N/A   Mostly Cloudy
8:35 PM 51.8 °F - 44.6 °F 76% 30.00 in 10.0 mi NNW 18.4 mph 24.2 mph N/A   Scattered Clouds
8:55 PM 51.8 °F - 44.6 °F 76% 30.01 in 10.0 mi NNW 17.3 mph 24.2 mph N/A   Mostly Cloudy
9:14 PM 51.8 °F - 46.4 °F 82% 30.01 in 10.0 mi NNW 16.1 mph - N/A   Overcast
9:35 PM 51.8 °F - 44.6 °F 76% 30.02 in 10.0 mi NNW 13.8 mph 19.6 mph N/A   Overcast
9:55 PM 51.8 °F - 44.6 °F 76% 30.02 in 10.0 mi NNW 12.7 mph - N/A   Overcast
10:15 PM 51.8 °F - 46.4 °F 82% 30.03 in 10.0 mi NNW 11.5 mph - N/A   Overcast
10:34 PM 51.8 °F - 46.4 °F 82% 30.03 in 10.0 mi NNW 10.4 mph 17.3 mph N/A   Overcast
11:14 PM 50.0 °F - 44.6 °F 82% 30.04 in 10.0 mi NNW 9.2 mph - N/A   Mostly Cloudy
11:34 PM 48.2 °F - 44.6 °F 87% 30.04 in 10.0 mi NW 6.9 mph - N/A   Scattered Clouds